COSMOS 1019

Satellite information

Favourite Embed

Satellite Type and Status

PAYLOADIN ORBIT

Key statistics

Satellite COSMOS 1019 at a glance.

Uptime

17363

Days in orbit

Revolutions

≈ 12.5

Per day

Orbit

LEO

Low Earth Orbit

Inclination

74.0

Latest

Satellite identification and parameters

Extended collection of information and parameters for COSMOS 1019.

Object identification

Identified? True

Debris? False

Object name: COSMOS 1019

International designator: 1978-056G

Object number (NORAD): 10936

Object ID (CCSDS): 10936

Country: COMMONWEALTH OF INDEPENDENT STATES (CIS)

Current information (Y/N): Y

RCS size: MEDIUM

Orbital parameters

Period: 115.001 minutes

Inclination: 74.0264 deg

SMA: 7833.619 km

Apoapsis: 1487.837 km

Periapsis: 1423.131 km

RAAN: 111.6006 deg

Eccentricy: 0.00413003

Argument of periapsis: 217.4976 deg

Mean anomaly: 259.6362 deg

Mean motion: 12.52157878 rev/day

Mean motion (dot): -0.0000003 rev/day2

B* drag term: -0.000090626218 1/REarth

Two-line elements (TLE)

Creation date: Dec. 19, 2025, 2:08 a.m.

Reference frame: TEME

Reference center: EARTH

Epoch: Dec. 18, 2025, 7:27 p.m. UTC

TLE line 0: 0 COSMOS 1019

TLE line 1: 1 10936U 78056G 25352.81100553 -.00000030 00000-0 -90626-4 0 9997

TLE line 2: 2 10936 74.0264 111.6006 0041300 217.4976 259.6362 12.52157878172653

Live tracking on map

Real-time ground track for satellite COSMOS 1019.

In-orbit conjunctions

There are no conjunctions computed for COSMOS 1019, at the moment. Check back to stay up to date, as we update our databases every day.

Go to all conjunctions

Associated space launch

Military communications satellites

COSMOS 1019 was lifted into orbit during the mission ‘Kosmos-3M | Strela-1M 145-152’, on board a Kosmos-3M space rocket.

The launch took place on June 7, 1978, 10 p.m. from 132/1 (132L).

For more information about the launch, click the button.

Launch to space Kosmos-3M | Strela-1M 145-152
Kosmos-3M | Strela-1M 145-152

Agency: N/A

Status: Launch Successful

Launch date: June 7, 1978, 10 p.m. UTC

Rocket: Kosmos-3M

Launch pad: 132/1 (132L)

Location: Plesetsk Cosmodrome, Russian Federation

...

Latest news about this satellite

There are no fresh news available about this satellite. Check back as we update our databases every day.


Newsletter sign-up

Weekly statistics, charts and insights to help you stay on top of the space industry.